Weather History for Cortez, CO

Change the Weather History Date:

Wednesday, April 16, 2014

  Actual Average Record
Temperature  
Mean Temperature 44 °F 47 °F  
Max Temperature 63 °F 65 °F 75 °F (2005)
Min Temperature 24 °F 30 °F 12 °F (1999)
Degree Days  
Heating Degree Days 21 18  
Month to date heating degree days 321 319  
Since 1 July heating degree days 5655 5849  
Cooling Degree Days 0 0  
Month to date cooling degree days 0 0  
Year to date cooling degree days 0 0  
Moisture  
Dew Point 19 °F    
Average Humidity 43    
Maximum Humidity 69    
Minimum Humidity 17    
Precipitation  
Precipitation 0.00 in 0.05 in 0.08 in (2002)
Month to date precipitation 0.43 0.63  
Year to date precipitation 1.50 3.71  
Sea Level Pressure  
Sea Level Pressure 29.84 in    
Wind  
Wind Speed 8 mph (NNE)    
Max Wind Speed 22 mph    
Max Gust Speed 31 mph    
Visibility 10 miles    
Events      
T = Trace of Precipitation, MM = Missing Value Source: NWS Daily Summary

Daily Weather History Graph

Daily Weather History Graph

Search for Another Location

Airport:

Trip Planner

Search our weather history database for the weather conditions in past years. The results will help you decide how hot, cold, wet, or windy it might be!

Date:

Astronomy

Apr. 16, 2014 Rise Set
Actual Time 6:38 AM MDT 7:50 PM MDT
Civil Twilight 6:11 AM MDT 8:17 PM MDT
Nautical Twilight 5:39 AM MDT 8:49 PM MDT
Astronomical Twilight 5:05 AM MDT 9:23 PM MDT
Moon 9:35 PM MDT (4/16) 7:29 AM MDT (4/16)
Length of Visible Light 14h 06m
Length of Day
13h 12m
Full, 98% of the Moon is Illuminated
Apr 16
Full
Apr 22
Last Quarter
Apr 29
New
May 6
First Quarter
May 14
Full

Hourly Weather History & Observations

Time (MDT) Temp. Windchill Dew Point Humidity Pressure Visibility Wind Dir Wind Speed Gust Speed Precip Events Conditions
12:53 AM 33.1 °F 28.7 °F 16.0 °F 50% 29.81 in 10.0 mi ENE 4.6 mph - N/A   Clear
1:53 AM 30.9 °F - 17.1 °F 57% 29.80 in 10.0 mi Calm Calm - N/A   Clear
2:53 AM 28.0 °F 24.2 °F 16.0 °F 61% 29.80 in 10.0 mi ENE 3.5 mph - N/A   Clear
3:53 AM 28.0 °F 20.8 °F 15.1 °F 58% 29.79 in 10.0 mi ENE 6.9 mph - N/A   Clear
4:53 AM 30.0 °F 25.2 °F 15.1 °F 54% 29.80 in 10.0 mi ENE 4.6 mph - N/A   Clear
5:53 AM 27.0 °F 19.5 °F 16.0 °F 63% 29.81 in 10.0 mi ENE 6.9 mph - N/A   Clear
6:53 AM 25.0 °F 18.1 °F 16.0 °F 69% 29.83 in 10.0 mi ENE 5.8 mph - N/A   Clear
7:53 AM 36.0 °F 32.1 °F 18.0 °F 48% 29.85 in 10.0 mi East 4.6 mph - N/A   Clear
8:53 AM 43.0 °F 40.3 °F 19.9 °F 40% 29.85 in 10.0 mi East 4.6 mph - N/A   Clear
9:53 AM 52.0 °F - 17.1 °F 25% 29.83 in 10.0 mi Calm Calm - N/A   Clear
10:53 AM 57.9 °F - 12.9 °F 17% 29.82 in 10.0 mi SSW 3.5 mph - N/A   Clear
12:53 PM 62.1 °F - 18.0 °F 18% 29.80 in 10.0 mi West 13.8 mph 20.7 mph N/A   Clear
1:53 PM 61.0 °F - 19.0 °F 20% 29.80 in 10.0 mi West 18.4 mph 27.6 mph N/A   Partly Cloudy
2:53 PM 61.0 °F - 19.9 °F 21% 29.81 in 10.0 mi West 19.6 mph - N/A   Partly Cloudy
3:53 PM 59.0 °F - 21.0 °F 23% 29.82 in 10.0 mi WSW 13.8 mph 23.0 mph N/A   Mostly Cloudy
4:53 PM 55.9 °F - 25.0 °F 30% 29.84 in 10.0 mi West 20.7 mph 28.8 mph N/A   Mostly Cloudy
5:53 PM 57.0 °F - 26.1 °F 30% 29.85 in 10.0 mi West 12.7 mph - N/A   Scattered Clouds
6:53 PM 55.9 °F - 25.0 °F 30% 29.86 in 10.0 mi WNW 10.4 mph - N/A   Partly Cloudy
7:53 PM 51.1 °F - 25.0 °F 36% 29.86 in 10.0 mi North 6.9 mph - N/A   Overcast
8:53 PM 44.1 °F - 23.0 °F 43% 29.89 in 10.0 mi Calm Calm - N/A   Clear
9:53 PM 39.9 °F - 23.0 °F 51% 29.90 in 10.0 mi Calm Calm - N/A   Clear
10:53 PM 36.0 °F 33.3 °F 23.0 °F 59% 29.91 in 10.0 mi NNE 3.5 mph - N/A   Clear
11:53 PM 30.9 °F 26.2 °F 21.0 °F 67% 29.92 in 10.0 mi ENE 4.6 mph - N/A   Clear